590  
ASUS43 KGLD 280708  
RWRGLD  
 
GOODLAND FORECAST AREA HOURLY WEATHER ROUNDUP  
NATIONAL WEATHER SERVICE GOODLAND KS  
1200 AM MST SUN FEB 28 2021  
   
..OFFICIAL OBSERVATIONS
 
 
 
CITY SKY/WX TMP DP RH WIND PRES REMARKS
 
GOODLAND KS CLEAR 25 8 48 NW9 29.89R  
HILL CITY KS CLEAR 32 24 72 NW10 29.90R  
IMPERIAL NEB MOCLDY 30 17 58 W10 29.90R  
MCCOOK NEB CLEAR 30 25 81 NW12 29.88F  
AKRON CO MOCLDY 27 9 46 W17G25 29.91S WCI 14  
BURLINGTON CO CLEAR 30 6 36 N16G28 29.89F WCI 19  
LIMON CO CLEAR 25 6 44 NW18 29.90S WCI 11  

 
   
..UNOFFICIAL OBSERVATIONS
 
 
 
CITY SKY/WX TMP DP RH WIND PRES REMARKS
 
COLBY KS CLEAR 19 14 79 W7 29.91F  
NORTON KS FAIR 30 25 80 NW10 29.90S  
SHARON SPRINGS N/A 25 4 39 NW9 N/A  
YUMA CO FAIR 30 10 43 W16 29.91S WCI 19  

 
 
 
CLICK HERE TO GO TO PREVIOUS BULLETINS.

The Nexlab KS Page
The Nexlab CO Page
The Nexlab NE Page Main Text Page